| time (UTC) | temp C | wind direction | speed KPH | gust KPH | rain 1hr cm | rain 24hr cm | rain mn cm | humidity % | barometer mb |
| 20260507003019 | -17 | 45 | 1.6 | 6.4 | 0.00 | 0.00 | 0.00 | ||
| 20260507002019 | -17 | 45 | 4.8 | 9.7 | 0.00 | 0.00 | 0.00 | ||
| 20260507001019 | -17 | 45 | 3.2 | 9.7 | 0.00 | 0.00 | 0.00 | ||
| 20260507000019 | -17 | 45 | 4.8 | 14.5 | 0.00 | 0.00 | 0.00 | ||
| 20260506235019 | -17 | 45 | 4.8 | 14.5 | 0.00 | 0.00 | 0.00 | ||
| 20260506234019 | -17 | 45 | 3.2 | 16.1 | 0.00 | 0.00 | 0.00 | ||
| 20260506233019 | -17 | 45 | 6.4 | 11.3 | 0.00 | 0.00 | 0.00 | ||
| 20260506232019 | -17 | 45 | 6.4 | 14.5 | 0.00 | 0.00 | 0.00 | ||
| 20260506231019 | -17 | 45 | 6.4 | 14.5 | 0.00 | 0.00 | 0.00 | ||
| 20260506230039 | -17 | 45 | 8.0 | 16.1 | 0.00 | 0.00 | 0.00 | ||
| 20260506225019 | -17 | 45 | 6.4 | 9.7 | 0.00 | 0.00 | 0.00 | ||
| 20260506224019 | -17 | 45 | 6.4 | 11.3 | 0.00 | 0.00 | 0.00 | ||
| 20260506223019 | -17 | 45 | 8.0 | 17.7 | 0.00 | 0.00 | 0.00 | ||
| 20260506222019 | -17 | 45 | 4.8 | 9.7 | 0.00 | 0.00 | 0.00 | ||
| 20260506221039 | -17 | 45 | 8.0 | 16.1 | 0.00 | 0.00 | 0.00 | ||
| 20260506220016 | -17 | 45 | 6.4 | 16.1 | 0.00 | 0.00 | 0.00 | ||
| 20260506215020 | -17 | 45 | 6.4 | 11.3 | 0.00 | 0.00 | 0.00 | ||
| 20260506214020 | -17 | 45 | 4.8 | 9.7 | 0.00 | 0.00 | 0.00 | ||
| 20260506213020 | -17 | 45 | 3.2 | 14.5 | 0.00 | 0.00 | 0.00 | ||
| 20260506212020 | -17 | 45 | 4.8 | 16.1 | 0.00 | 0.00 | 0.00 | ||
| 20260506211019 | -17 | 45 | 8.0 | 20.9 | 0.00 | 0.00 | 0.00 | ||
| 20260506210019 | -17 | 45 | 4.8 | 14.5 | 0.00 | 0.00 | 0.00 | ||
| 20260506205019 | -17 | 45 | 3.2 | 11.3 | 0.00 | 0.00 | 0.00 | ||
| 20260506204059 | -17 | 45 | 3.2 | 14.5 | 0.00 | 0.00 | 0.00 | ||
| 20260506203019 | -17 | 45 | 3.2 | 14.5 | 0.00 | 0.00 | 0.00 | ||
| 20260506202041 | -17 | 45 | 3.2 | 12.9 | 0.00 | 0.00 | 0.00 | ||
| 20260506201019 | -17 | 45 | 3.2 | 19.3 | 0.00 | 0.00 | 0.00 | ||
| 20260506200019 | -17 | 45 | 3.2 | 14.5 | 0.00 | 0.00 | 0.00 | ||
| 20260506195019 | -17 | 45 | 3.2 | 11.3 | 0.00 | 0.00 | 0.00 | ||
| 20260506194020 | -17 | 45 | 4.8 | 16.1 | 0.00 | 0.00 | 0.00 | ||
| 20260506193019 | -17 | 45 | 8.0 | 17.7 | 0.00 | 0.00 | 0.00 | ||
| 20260506192020 | -17 | 45 | 3.2 | 17.7 | 0.00 | 0.00 | 0.00 | ||
| 20260506191019 | -17 | 45 | 1.6 | 11.3 | 0.00 | 0.00 | 0.00 | ||
| 20260506190019 | -17 | 45 | 3.2 | 14.5 | 0.00 | 0.00 | 0.00 | ||
| 20260506185019 | -17 | 0.0 | 9.7 | 0.00 | 0.00 | 0.00 | |||
| 20260506184019 | -17 | 45 | 1.6 | 8.0 | 0.00 | 0.00 | 0.00 | ||
| 20260506183019 | -17 | 45 | 1.6 | 17.7 | 0.00 | 0.00 | 0.00 | ||
| 20260506182019 | -17 | 45 | 3.2 | 14.5 | 0.00 | 0.00 | 0.00 | ||
| 20260506181100 | -17 | 45 | 3.2 | 17.7 | 0.00 | 0.00 | 0.00 | ||
| 20260506180019 | -17 | 45 | 1.6 | 14.5 | 0.00 | 0.00 | 0.00 | ||
| 20260506175040 | -17 | 45 | 6.4 | 14.5 | 0.00 | 0.00 | 0.00 | ||
| 20260506174019 | -17 | 0.0 | 0.0 | 0.00 | 0.00 | 0.00 | |||
| 20260506173019 | -17 | 0.0 | 6.4 | 0.00 | 0.00 | 0.00 | |||
| 20260506172020 | -17 | 0.0 | 0.0 | 0.00 | 0.00 | 0.00 | |||
| 20260506171019 | -17 | 0.0 | 0.0 | 0.00 | 0.00 | 0.00 | |||
| 20260506170018 | -17 | 0.0 | 0.0 | 0.00 | 0.00 | 0.00 | |||
| 20260506165040 | -17 | 0.0 | 0.0 | 0.00 | 0.00 | 0.00 | |||
| 20260506164019 | -17 | 0.0 | 0.0 | 0.00 | 0.00 | 0.00 | |||
| 20260506163019 | -17 | 0.0 | 0.0 | 0.00 | 0.00 | 0.00 | |||
| 20260506162059 | -17 | 0.0 | 0.0 | 0.00 | 0.00 | 0.00 | |||
| 20260506161019 | -17 | 0.0 | 0.0 | 0.00 | 0.00 | 0.00 | |||
| 20260506160019 | -17 | 0.0 | 1.6 | 0.00 | 0.00 | 0.00 | |||
| 20260506155019 | -17 | 0.0 | 0.0 | 0.00 | 0.00 | 0.00 | |||
| 20260506154019 | -17 | 0.0 | 0.0 | 0.00 | 0.00 | 0.00 | |||
| 20260506153019 | -17 | 0.0 | 0.0 | 0.00 | 0.00 | 0.00 | |||
| 20260506152019 | -17 | 0.0 | 0.0 | 0.00 | 0.00 | 0.00 | |||
| 20260506151019 | -17 | 0.0 | 0.0 | 0.00 | 0.00 | 0.00 | |||
| 20260506150019 | -17 | 0.0 | 0.0 | 0.00 | 0.00 | 0.00 | |||
| 20260506145019 | -17 | 0.0 | 1.6 | 0.00 | 0.00 | 0.00 | |||
| 20260506144019 | -17 | 0.0 | 3.2 | 0.00 | 0.00 | 0.00 | |||
| 20260506143020 | -17 | 45 | 1.6 | 16.1 | 0.00 | 0.00 | 0.00 | ||
| 20260506142019 | -17 | 0.0 | 0.0 | 0.00 | 0.00 | 0.00 | |||
| 20260506141036 | -17 | 0.0 | 3.2 | 0.00 | 0.00 | 0.00 | |||
| 20260506140019 | -17 | 0.0 | 8.0 | 0.00 | 0.00 | 0.00 | |||
| 20260506135019 | -17 | 0.0 | 4.8 | 0.00 | 0.00 | 0.00 | |||
| 20260506134039 | -17 | 0.0 | 1.6 | 0.00 | 0.00 | 0.00 | |||
| 20260506133019 | -17 | 0.0 | 1.6 | 0.00 | 0.00 | 0.00 | |||
| 20260506132019 | -17 | 0.0 | 4.8 | 0.00 | 0.00 | 0.00 | |||
| 20260506131019 | -17 | 0.0 | 3.2 | 0.00 | 0.00 | 0.00 | |||
| 20260506130017 | -17 | 0.0 | 8.0 | 0.00 | 0.00 | 0.00 | |||
| 20260506125019 | -17 | 0.0 | 1.6 | 0.00 | 0.00 | 0.00 | |||
| 20260506124019 | -17 | 0.0 | 1.6 | 0.00 | 0.00 | 0.00 | |||
| 20260506123019 | -17 | 0.0 | 0.0 | 0.00 | 0.00 | 0.00 | |||
| 20260506122039 | -17 | 0.0 | 0.0 | 0.00 | 0.00 | 0.00 | |||
| 20260506121039 | -17 | 45 | 1.6 | 11.3 | 0.00 | 0.00 | 0.00 | ||
| 20260506120019 | -17 | 0.0 | 0.0 | 0.00 | 0.00 | 0.00 | |||
| 20260506115018 | -17 | 0.0 | 0.0 | 0.00 | 0.00 | 0.00 | |||
| 20260506114019 | -17 | 0.0 | 0.0 | 0.00 | 0.00 | 0.00 | |||
| 20260506113018 | -17 | 0.0 | 0.0 | 0.00 | 0.00 | 0.00 | |||
| 20260506112019 | -17 | 0.0 | 0.0 | 0.00 | 0.00 | 0.00 | |||
| 20260506111019 | -17 | 0.0 | 0.0 | 0.00 | 0.00 | 0.00 | |||
| 20260506110040 | -17 | 0.0 | 4.8 | 0.00 | 0.00 | 0.00 | |||
| 20260506105019 | -17 | 0.0 | 3.2 | 0.00 | 0.00 | 0.00 | |||
| 20260506104018 | -17 | 0.0 | 0.0 | 0.00 | 0.00 | 0.00 | |||
| 20260506103018 | -17 | 0.0 | 0.0 | 0.00 | 0.00 | 0.00 | |||
| 20260506102040 | -17 | 0.0 | 1.6 | 0.00 | 0.00 | 0.00 | |||
| 20260506101018 | -17 | 0.0 | 0.0 | 0.00 | 0.00 | 0.00 | |||
| 20260506100039 | -17 | 0.0 | 0.0 | 0.00 | 0.00 | 0.00 | |||
| 20260506095020 | -17 | 0.0 | 0.0 | 0.00 | 0.00 | 0.00 | |||
| 20260506094018 | -17 | 0.0 | 1.6 | 0.00 | 0.00 | 0.00 | |||
| 20260506093022 | -17 | 0.0 | 0.0 | 0.00 | 0.00 | 0.00 | |||
| 20260506092020 | -17 | 0.0 | 0.0 | 0.00 | 0.00 | 0.00 | |||
| 20260506091021 | -17 | 0.0 | 1.6 | 0.00 | 0.00 | 0.00 | |||
| 20260506090042 | -17 | 45 | 3.2 | 14.5 | 0.00 | 0.00 | 0.00 | ||
| 20260506085022 | -17 | 0.0 | 4.8 | 0.00 | 0.00 | 0.00 | |||
| 20260506084020 | -17 | 0.0 | 4.8 | 0.00 | 0.00 | 0.00 | |||
| 20260506083020 | -17 | 0.0 | 8.0 | 0.00 | 0.00 | 0.00 | |||
| 20260506082041 | -17 | 0.0 | 4.8 | 0.00 | 0.00 | 0.00 | |||
| 20260506081144 | -17 | 0.0 | 3.2 | 0.00 | 0.00 | 0.00 | |||
| 20260506073020 | -17 | 0.0 | 1.6 | 0.00 | 0.00 | 0.00 | |||
| 20260506072020 | -17 | 45 | 1.6 | 11.3 | 0.00 | 0.00 | 0.00 | ||
| 20260506071020 | -17 | 0.0 | 3.2 | 0.00 | 0.00 | 0.00 | |||
| 20260506062018 | -17 | 0.0 | 11.3 | 0.00 | 0.00 | 0.00 | |||
| 20260506061020 | -17 | 0.0 | 14.5 | 0.00 | 0.00 | 0.00 | |||
| 20260506051020 | -17 | 0.0 | 4.8 | 0.00 | 0.00 | 0.00 | |||
| 20260506050105 | -17 | 0.0 | 4.8 | 0.00 | 0.00 | 0.00 | |||
| 20260506045020 | -17 | 0.0 | 3.2 | 0.00 | 0.00 | 0.00 | |||
| 20260506044040 | -17 | 0.0 | 6.4 | 0.00 | 0.00 | 0.00 | |||
| 20260506043020 | -17 | 0.0 | 6.4 | 0.00 | 0.00 | 0.00 | |||
| 20260506042020 | -17 | 0.0 | 4.8 | 0.00 | 0.00 | 0.00 | |||
| 20260506041019 | -17 | 45 | 1.6 | 12.9 | 0.00 | 0.00 | 0.00 | ||
| 20260506040020 | -17 | 0.0 | 4.8 | 0.00 | 0.00 | 0.00 | |||
| 20260506035020 | -17 | 0.0 | 9.7 | 0.00 | 0.00 | 0.00 | |||
| 20260506034020 | -17 | 0.0 | 6.4 | 0.00 | 0.00 | 0.00 | |||
| 20260506033020 | -17 | 45 | 1.6 | 11.3 | 0.00 | 0.00 | 0.00 | ||
| 20260506032020 | -17 | 45 | 1.6 | 11.3 | 0.00 | 0.00 | 0.00 | ||
| 20260506031020 | -17 | 45 | 1.6 | 9.7 | 0.00 | 0.00 | 0.00 | ||
| 20260506030019 | -17 | 0.0 | 4.8 | 0.00 | 0.00 | 0.00 | |||
| 20260506025020 | -17 | 0.0 | 9.7 | 0.00 | 0.00 | 0.00 | |||
| 20260506024020 | -17 | 0.0 | 9.7 | 0.00 | 0.00 | 0.00 | |||
| 20260506023019 | -17 | 45 | 1.6 | 9.7 | 0.00 | 0.00 | 0.00 | ||
| 20260506022021 | -17 | 45 | 3.2 | 9.7 | 0.00 | 0.00 | 0.00 | ||
| 20260506021020 | -17 | 45 | 1.6 | 11.3 | 0.00 | 0.00 | 0.00 | ||
| 20260506020040 | -17 | 45 | 1.6 | 9.7 | 0.00 | 0.00 | 0.00 | ||
| 20260506015040 | -17 | 45 | 1.6 | 9.7 | 0.00 | 0.00 | 0.00 | ||
| 20260506014019 | -17 | 45 | 3.2 | 11.3 | 0.00 | 0.00 | 0.00 | ||
| 20260506013100 | -17 | 45 | 4.8 | 17.7 | 0.00 | 0.00 | 0.00 | ||
| 20260506012019 | -17 | 0.0 | 8.0 | 0.00 | 0.00 | 0.00 | |||
| 20260506011016 | -17 | 45 | 4.8 | 16.1 | 0.00 | 0.00 | 0.00 | ||
| 20260506010019 | -17 | 45 | 3.2 | 16.1 | 0.00 | 0.00 | 0.00 | ||
| 20260506005019 | -17 | 0.0 | 6.4 | 0.00 | 0.00 | 0.00 | |||
| 20260506004040 | -17 | 45 | 1.6 | 17.7 | 0.00 | 0.00 | 0.00 |